[[{"header":{"parameterUnit":"m.s-1","parameterCategory":1,"la1":30.2991,"la2":30.254,"lo1":-89.0895,"lo2":-89.0444,"dy":0.0017,"dx":0.0017,"nx":28,"ny":28,"refTime":"2024-04-21T21:00:00:Z","depth":0,"parameterNumber":2,"parameterNumberName":"U-component_of_WINDS"},"data":[0,0,0,0,0,0,0,0,0,0,0,0,0,0,0,0,0,0,0,0,0,0,0,0,0,0,0,0,0,0,0,0,0,0,0,0,0,0,0,0,0,0,0,0,0,0,0,0,0,0,0,0,0,0,0,0,0,0,0.0815,0.0813,0,0.0705,0.0704,0.0703,0.0688,0.0689,0.069,0.0691,0.0573,0.0569,0.0565,0,0,0,0,0,0,0,0,0,0,0,0,0,0.1005,0.1002,0.0815,0.0813,0.0812,0.0706,0.0704,0.0703,0.0688,0.0689,0.069,0.0692,0.0574,0.0569,0.0564,0,0,0,0,0,0,0,0,0,0,0,0,0,0.0912,0.1001,0.0815,0.0792,0.0789,0.0706,0.0704,0.0702,0.0688,0.0689,0.0691,0.0692,0.0576,0.057,0.0564,0.0494,0,0,0.0545,0.0542,0,0,0,0,0,0,0,0,0.0917,0.0905,0.0797,0.0793,0.079,0.0712,0.0728,0.0632,0.0687,0.0726,0.0691,0.0693,0.0617,0.0608,0.0584,0.0488,0.0483,0.0544,0.054,0.0538,0.0536,0,0,0,0,0,0,0,0.0924,0.0909,0.0771,0.0795,0.0791,0.0785,0.0774,0.071,0.0664,0.0723,0.0721,0.0709,0.0616,0.059,0.0581,0.0482,0.0544,0.0539,0.0535,0.0533,0.0323,0.0321,0,0,0,0,0,0,0.0935,0.0915,0.0775,0.0768,0.0859,0.0781,0.0768,0.0735,0.0665,0.0656,0.0708,0.0709,0.06,0.0588,0.0577,0.049,0.0538,0.0532,0.0528,0.0325,0.0323,0.0321,0,0,0,0,0,0,0.0939,0.0923,0.0779,0.0841,0.0822,0.0776,0.0739,0.0732,0.0706,0.0654,0.0645,0.069,0.06,0.0585,0.0515,0.0485,0.0529,0.0524,0.0327,0.0324,0.0322,0.0316,0,0,0,0,0,0,0.0945,0.0924,0.0898,0.0841,0.0819,0.0721,0.0738,0.0729,0.0697,0.0697,0.0634,0.0625,0.06,0.0524,0.0509,0.0478,0.0519,0.033,0.0326,0.0323,0.0318,0.0313,0.0308,0,0,0,0,0,0.0952,0.09,0.0897,0.088,0.0786,0.0719,0.0707,0.0681,0.0694,0.0667,0.0633,0.0627,0.0492,0.0517,0.05,0.0466,0.0331,0.0327,0.0323,0.032,0.0314,0.0309,0,0,0,0,0,0,0.0952,0.0892,0.0888,0.0816,0.0773,0.0717,0.0681,0.0675,0.0625,0.0627,0.0596,0.0581,0.0512,0.0482,0.0512,0.0395,0.0412,0.0405,0.0417,0.041,0.0405,0.0413,0.0514,0,0,0,0,0,0.0945,0.0897,0.0846,0.0788,0.0767,0.0728,0.0698,0.0682,0.0635,0.0616,0.0577,0.053,0.0477,0.0442,0.039,0.0315,0.03,0.0283,0.0278,0.0275,0.0267,0.0224,0.0215,0.0307,0.0307,0.0307,0,0,0.0927,0.0888,0.086,0.0787,0.0752,0.0701,0.0712,0.0659,0.062,0.0607,0.0538,0.0509,0.0454,0.0381,0.0346,0.0354,0.0239,0.0269,0.0267,0.0261,0.0219,0.021,0.0203,0.0304,0.0305,0.0305,0,0,0.0869,0.0836,0.0784,0.0749,0.0697,0.0672,0.0659,0.0604,0.0584,0.0516,0.0505,0.0458,0.0367,0.0329,0.0297,0.0227,0.0219,0.0211,0.0185,0.0143,0.0136,0.0129,0.0103,0.0094,0.0205,0.0205,0.0205,0,0.0853,0.0779,0.0757,0.0704,0.0671,0.066,0.0606,0.0573,0.0505,0.0482,0.0492,0.0378,0.0341,0.0258,0.0241,0.0217,0.02,0.0217,0.0139,0.0132,0.0126,0.01,0.009,0.0204,0.0204,0.0204,0.0204,0,0.0762,0.071,0.0674,0.0612,0.0575,0.0522,0.049,0.0456,0.0444,0.0417,0.0347,0.0302,0.0241,0.0221,0.0208,0.0136,0.0142,0.0146,0.0163,0.0117,0.0092,0.0082,0.0203,0.0203,0.0203,0.0204,0,0,0.0698,0.0626,0.0613,0.0584,0.0527,0.0486,0.0432,0.0374,0.0345,0.0299,0.0251,0.0176,0.018,0.0145,0.0127,0.0091,0.0037,0.0099,0.0097,0.0087,-0.0047,-0.0051,-0.0062,0.0033,0.0031,0.0029,-0.0043,0,0.0632,0.0537,0.0516,0.0433,0.0385,0.0375,0.0328,0.0286,0.0261,0.0214,0.0185,0.0132,0.0142,0.0121,0.0085,0.0051,0.0009,0.0056,-0.0015,-0.0017,-0.0003,-0.0075,-0.008,-0.0146,-0.0052,-0.0054,-0.0055,0,0.0542,0.0497,0.041,0.0359,0.0338,0.0296,0.0242,0.0199,0.0151,0.0135,0.0097,0.0084,0.0025,0.0047,-0.0035,-0.0002,-0.0032,-0.0052,-0.0056,-0.0066,-0.0041,-0.0089,-0.0168,-0.0178,-0.0071,-0.0069,-0.0068,0,0.0502,0.0419,0.0357,0.0333,0.0273,0.0243,0.0216,0.0171,0.0138,0.009,0.0068,0.0014,-0.0017,-0.0059,-0.0087,-0.0068,-0.0168,-0.0148,-0.0185,-0.0184,-0.0208,-0.0207,-0.0295,-0.0223,-0.0223,-0.0222,-0.0222,0,0.0429,0.0375,0.0338,0.0299,0.0239,0.0215,0.0156,0.0129,0.0089,0.0043,0.0031,-0.0012,-0.0045,-0.0093,-0.0115,-0.0181,-0.0194,-0.021,-0.0216,-0.0211,-0.0209,-0.0233,-0.023,-0.0225,-0.0224,-0.0224,-0.0223,0,0.0373,0.0346,0.0277,0.0227,0.0213,0.017,0.0126,0.0087,0.0063,0.0005,-0.0009,-0.0049,-0.0106,-0.0137,-0.0209,-0.0224,-0.0298,-0.03,-0.0281,-0.0284,-0.0321,-0.0318,-0.043,-0.0446,-0.036,-0.0361,-0.0362,0,0.0326,0.0286,0.0232,0.0202,0.0175,0.0126,0.0094,0.0069,0.0035,-0.0021,-0.0054,-0.0111,-0.0158,-0.0249,-0.0285,-0.034,-0.0346,-0.0381,-0.0354,-0.0348,-0.0349,-0.0347,-0.0352,-0.0387,-0.0387,-0.0388,-0.0388,0,0.0247,0.0236,0.019,0.0139,0.0101,0.006,0.0018,-0.0006,-0.0038,-0.0076,-0.0133,-0.0169,-0.0241,-0.0298,-0.0356,-0.0385,-0.0394,-0.0396,-0.0408,-0.0404,-0.0393,-0.0401,-0.0297,-0.0394,-0.0394,-0.0393,-0.0393,-0.0393,0.0192,0.0155,0.0112,0.0061,0.0029,-0.0009,-0.0048,-0.0076,-0.0123,-0.0183,-0.0194,-0.0255,-0.0301,-0.0379,-0.041,-0.0459,-0.0452,-0.0469,-0.0474,-0.0478,-0.0481,-0.0382,-0.0469,-0.0469,-0.0469,-0.0469,-0.0469,0,0.011,0.0083,0.0036,-0.002,-0.006,-0.0059,-0.0105,-0.0139,-0.0192,-0.0233,-0.0278,-0.0344,-0.0399,-0.0438,-0.0495,-0.0526,-0.0532,-0.0541,-0.054,-0.0547,-0.0482,-0.0467,-0.0536,-0.0536,-0.0536,-0.0536,-0.0536,-0.0536,0.0062,-0.0,-0.0016,-0.0095,-0.0123,-0.018,-0.0206,-0.0242,-0.0275,-0.0347,-0.0392,-0.0416,-0.0457,-0.0516,-0.0567,-0.0577,-0.0599,-0.0608,-0.0619,-0.0559,-0.0552,-0.0545,-0.0531,-0.0612,-0.0612,-0.068,-0.0681,-0.0681]},{"header":{"parameterUnit":"m.s-1","parameterCategory":1,"la1":30.2991,"la2":30.254,"lo1":-89.0895,"lo2":-89.0444,"dy":0.0017,"dx":0.0017,"nx":28,"ny":28,"refTime":"2024-04-21T21:00:00:Z","depth":0,"parameterNumber":3,"parameterNumberName":"V-component_of_WINDS"},"data":[0,0,0,0,0,0,0,0,0,0,0,0,0,0,0,0,0,0,0,0,0,0,0,0,0,0,0,0,0,0,0,0,0,0,0,0,0,0,0,0,0,0,0,0,0,0,0,0,0,0,0,0,0,0,0,0,0,0,-7.1811,-7.1812,0,-7.1893,-7.1894,-7.1895,-7.1761,-7.1756,-7.1752,-7.1747,-7.1827,-7.1833,-7.184,0,0,0,0,0,0,0,0,0,0,0,0,0,-7.1535,-7.1541,-7.1811,-7.1812,-7.1813,-7.1893,-7.1894,-7.1895,-7.1762,-7.1756,-7.175,-7.1745,-7.1825,-7.1832,-7.184,0,0,0,0,0,0,0,0,0,0,0,0,0,-7.164,-7.1543,-7.1811,-7.1756,-7.1752,-7.1893,-7.1894,-7.1895,-7.1763,-7.1756,-7.1749,-7.1743,-7.1822,-7.1832,-7.1841,-7.2038,0,0,-7.187,-7.1875,0,0,0,0,0,0,0,0,-7.1634,-7.165,-7.1763,-7.176,-7.1756,-7.181,-7.1826,-7.1943,-7.1765,-7.1759,-7.1747,-7.1739,-7.1827,-7.1835,-7.1866,-7.2041,-7.2045,-7.1871,-7.1877,-7.1881,-7.1884,0,0,0,0,0,0,0,-7.1627,-7.1646,-7.1843,-7.1765,-7.1761,-7.1726,-7.1734,-7.1847,-7.183,-7.1759,-7.1749,-7.1761,-7.1823,-7.1857,-7.1867,-7.2046,-7.1871,-7.188,-7.1885,-7.1889,-7.2387,-7.2394,0,0,0,0,0,0,-7.1627,-7.164,-7.1841,-7.1846,-7.1677,-7.1737,-7.1745,-7.1799,-7.1828,-7.1826,-7.1767,-7.1754,-7.1844,-7.1856,-7.1869,-7.2101,-7.1881,-7.189,-7.1896,-7.238,-7.2389,-7.2397,0,0,0,0,0,0,-7.1621,-7.1646,-7.1837,-7.1741,-7.1762,-7.1749,-7.1811,-7.1805,-7.1838,-7.1835,-7.183,-7.1805,-7.1839,-7.1855,-7.1997,-7.2102,-7.1894,-7.1903,-7.2371,-7.2382,-7.2393,-7.2568,0,0,0,0,0,0,-7.1614,-7.1645,-7.172,-7.1743,-7.1768,-7.1966,-7.1818,-7.1811,-7.1855,-7.184,-7.1869,-7.1867,-7.1835,-7.1984,-7.2007,-7.2111,-7.1911,-7.2361,-7.2376,-7.2389,-7.2552,-7.2583,-7.261,0,0,0,0,0,-7.1605,-7.1765,-7.1725,-7.175,-7.1863,-7.1972,-7.1986,-7.1947,-7.1865,-7.194,-7.1937,-7.1866,-7.2087,-7.1999,-7.2024,-7.2133,-7.2354,-7.2372,-7.2388,-7.2539,-7.2577,-7.2609,0,0,0,0,0,0,-7.1753,-7.1767,-7.1723,-7.1896,-7.1934,-7.195,-7.2043,-7.1988,-7.205,-7.2033,-7.198,-7.1988,-7.2141,-7.215,-7.2053,-7.2325,-7.2206,-7.2229,-7.2313,-7.2349,-7.2377,-7.2372,-7.1919,0,0,0,0,0,-7.1806,-7.1896,-7.1903,-7.2055,-7.2077,-7.2057,-7.2103,-7.207,-7.2107,-7.2122,-7.213,-7.2168,-7.2245,-7.2297,-7.2368,-7.2553,-7.2557,-7.264,-7.2669,-7.2693,-7.2713,-7.2812,-7.2849,-7.2452,-7.2452,-7.2451,0,0,-7.1917,-7.1935,-7.1995,-7.2085,-7.2111,-7.2204,-7.2072,-7.2175,-7.2243,-7.2137,-7.2272,-7.228,-7.2318,-7.2482,-7.2555,-7.2495,-7.2824,-7.2714,-7.2733,-7.2741,-7.2833,-7.287,-7.2904,-7.2463,-7.2461,-7.2459,0,0,-7.2165,-7.2189,-7.2318,-7.2348,-7.2389,-7.2375,-7.2406,-7.2431,-7.2432,-7.2567,-7.249,-7.2569,-7.2704,-7.2734,-7.2768,-7.3029,-7.2966,-7.3053,-7.3204,-7.3301,-7.3332,-7.3359,-7.3453,-7.3487,-7.3073,-7.3074,-7.3074,0,-7.2297,-7.2435,-7.2392,-7.2502,-7.2543,-7.2453,-7.2584,-7.2613,-7.2676,-7.2706,-7.2639,-7.2807,-7.2826,-7.2996,-7.306,-7.309,-7.3124,-7.305,-7.3331,-7.3358,-7.3383,-7.3472,-7.3507,-7.3084,-7.3083,-7.3082,-7.3081,0,-7.2595,-7.2692,-7.2792,-7.2856,-7.2909,-7.3029,-7.3002,-7.306,-7.3023,-7.3016,-7.3154,-7.3174,-7.3248,-7.3286,-7.3249,-7.3452,-7.3413,-7.334,-7.322,-7.3432,-7.3515,-7.3548,-7.3099,-7.3095,-7.3092,-7.309,0,0,-7.294,-7.298,-7.3017,-7.3045,-7.3085,-7.3158,-7.3273,-7.3347,-7.3399,-7.3444,-7.3539,-7.3656,-7.3588,-7.3626,-7.3592,-7.3677,-7.3883,-7.3592,-7.3592,-7.3646,-7.4108,-7.4164,-7.4204,-7.3841,-7.3847,-7.3852,-7.4105,0,-7.3188,-7.3389,-7.3353,-7.3548,-7.3637,-7.3553,-7.3653,-7.3687,-7.3684,-7.3758,-7.3752,-7.3837,-7.3741,-7.3763,-7.3843,-7.3841,-7.3975,-7.3822,-7.3929,-7.3933,-7.3923,-7.4247,-7.4306,-7.4544,-7.4137,-7.4142,-7.4146,0,-7.3505,-7.3565,-7.3769,-7.3795,-7.3831,-7.3922,-7.3987,-7.4059,-7.4096,-7.4087,-7.4131,-7.4081,-7.4194,-7.4072,-7.4228,-7.4125,-7.4166,-7.4171,-7.4179,-7.4188,-7.4053,-7.4265,-7.4618,-7.4655,-7.4196,-7.4192,-7.4189,0,-7.3737,-7.3868,-7.4008,-7.4034,-7.4068,-7.4134,-7.415,-7.4181,-7.4228,-7.4284,-7.4314,-7.4382,-7.442,-7.4474,-7.4443,-7.4357,-7.4604,-7.4479,-7.46,-7.4601,-7.4656,-7.4653,-7.5022,-7.4682,-7.4681,-7.468,-7.468,0,-7.4018,-7.4147,-7.4113,-7.4199,-7.434,-7.4297,-7.4437,-7.4443,-7.4471,-7.4556,-7.4486,-7.4567,-7.4521,-7.4598,-7.4575,-7.4707,-7.4724,-7.472,-7.4712,-7.4727,-7.4728,-7.4754,-7.4737,-7.469,-7.4688,-7.4686,-7.4684,0,-7.4302,-7.4284,-7.4431,-7.4451,-7.4459,-7.4562,-7.4579,-7.4658,-7.465,-7.4758,-7.4781,-7.4767,-7.4854,-7.4829,-7.4922,-7.4906,-7.5074,-7.5045,-7.5063,-7.5056,-7.5178,-7.5167,-7.5577,-7.5628,-7.5255,-7.5258,-7.5261,0,-7.4483,-7.4581,-7.4612,-7.4665,-7.4687,-7.4773,-7.4821,-7.4782,-7.4834,-7.4884,-7.4958,-7.5039,-7.5102,-7.5245,-7.5242,-7.5313,-7.5286,-7.5424,-7.5296,-7.5308,-7.5289,-7.5284,-7.5294,-7.545,-7.5454,-7.5458,-7.5461,0,-7.4807,-7.4794,-7.4867,-7.4938,-7.4998,-7.5051,-7.5097,-7.5144,-7.5108,-7.5171,-7.526,-7.5309,-7.5405,-7.5487,-7.5552,-7.5567,-7.5509,-7.5501,-7.5533,-7.5549,-7.5556,-7.5555,-7.5134,-7.5492,-7.5489,-7.5487,-7.5485,-7.5484,-7.5046,-7.5129,-7.5164,-7.5248,-7.5279,-7.5325,-7.5401,-7.5402,-7.5477,-7.5553,-7.5525,-7.5628,-7.5661,-7.5743,-7.5767,-7.5845,-7.5792,-7.5838,-7.585,-7.5862,-7.5878,-7.5543,-7.5857,-7.5856,-7.5855,-7.5854,-7.5854,0,-7.5367,-7.5386,-7.5463,-7.5532,-7.5598,-7.5538,-7.5587,-7.5645,-7.5737,-7.5774,-7.5838,-7.5941,-7.602,-7.6024,-7.6097,-7.6159,-7.6134,-7.618,-7.6175,-7.618,-7.5921,-7.5887,-7.6199,-7.6199,-7.6199,-7.6199,-7.6199,-7.6199,-7.5542,-7.5679,-7.567,-7.5822,-7.5839,-7.5941,-7.5974,-7.6015,-7.6045,-7.6163,-7.6229,-7.6231,-7.6255,-7.633,-7.6399,-7.6398,-7.6429,-7.6485,-7.6474,-7.6232,-7.6198,-7.6165,-7.6133,-7.6492,-7.6492,-7.6727,-7.6729,-7.6731]}]]